Location: Usti nad Labem
(50.6670°N, 14.0330°E)
Time: 01:13:18
(UTC+02:00)

ISS - Pass Details

Date: 26 April 2025
Orbit: 416 x 420 km, 51.6° (Epoch: 16 May)

Event Time Altitude Azimuth Distance (km) Brightness Sun altitude
Exits shadow 02:58:51 13° 117° (ESE) 1,320 -1.2 -20.9°
Drops below altitude 10° 02:59:44 10° 103° (ESE) 1,493 -0.8 -20.8°
Sets 03:02:30 0° 79° (E) 2,361 0.7 -20.6°
